Frankfort, MI

1:00 AM EST on December 10, 2019 (GMT -0500)
Frankfort

Weather History for KFKS - November, 2019

Change the Weather History Date:

Friday, November 15, 2019

  Actual Average (WUND) Record (WUND)
Temperature  
Mean Temperature 31 °F -  
Max Temperature 36 °F - - (-1)
Min Temperature 25 °F - - (-1)
Degree Days  
Heating Degree Days 34    
Moisture  
Dew Point 23 °F    
Average Humidity 69    
Maximum Humidity 78    
Minimum Humidity 58    
Precipitation  
Precipitation 0.00 in - - ()
Sea Level Pressure  
Sea Level Pressure 30.29 in    
Wind  
Wind Speed 11 mph (NNW)    
Max Wind Speed 15 mph    
Max Gust Speed 24 mph    
Visibility 10 miles    
Events      
Averages and records for this station are not official NWS values.
T = Trace of Precipitation, MM = Missing Value Source: NWS Daily Summary

Daily Weather History Graph

Daily Weather History Graph

Search for Another Location

Airport or City:

Astronomy

Nov. 15, 2019 Rise Set
Actual Time 7:41 AM EST 5:17 PM EST
Civil Twilight 7:09 AM EST 5:48 PM EST
Nautical Twilight 6:34 AM EST 6:23 PM EST
Astronomical Twilight 5:59 AM EST 6:58 PM EST
Moon 7:47 PM EST (11/15) 10:41 AM EST (11/15)
Length of Visible Light 10h 38m
Length of Day
9h 35m
Waning Gibbous, 90% of the Moon is Illuminated
Nov 15
Waning Gibbous
Nov 19
Last Quarter
Nov 26
New
Dec 4
First Quarter
Dec 12
Full

Hourly Weather History & Observations

Time (EST) Temp. Windchill Dew Point Humidity Pressure Visibility Wind Dir Wind Speed Gust Speed Precip Events Conditions
12:15 AM 33.4 °F 23.5 °F 26.4 °F 75% 30.13 in 10.0 mi West 15.0 mph 24.2 mph N/A   Overcast
12:35 AM 33.3 °F 23.2 °F 25.7 °F 74% 30.13 in 10.0 mi West 15.0 mph 21.9 mph N/A   Overcast
12:36 AM 33.3 °F 23.7 °F 25.5 °F 73% 30.13 in 10.0 mi West 13.8 mph 23.0 mph N/A   Overcast
12:55 AM 32.9 °F 23.7 °F 24.8 °F 72% 30.13 in 10.0 mi West 12.7 mph 21.9 mph N/A   Overcast
1:15 AM 32.2 °F 21.8 °F 25.2 °F 75% 30.14 in 10.0 mi West 15.0 mph 21.9 mph N/A   Overcast
1:35 AM 32.0 °F 21.6 °F 25.3 °F 76% 30.14 in 10.0 mi West 15.0 mph 21.9 mph N/A   Overcast
1:55 AM 32.2 °F 22.3 °F 25.9 °F 78% 30.14 in 10.0 mi West 13.8 mph 19.6 mph N/A   Overcast
2:15 AM 32.4 °F 23.0 °F 25.7 °F 76% 30.14 in 10.0 mi WNW 12.7 mph - N/A   Overcast
2:16 AM 32.4 °F 23.0 °F 25.7 °F 76% 30.14 in 10.0 mi WNW 12.7 mph - N/A   Overcast
2:35 AM 32.4 °F 23.0 °F 25.7 °F 76% 30.14 in 10.0 mi WNW 12.7 mph 20.7 mph N/A   Overcast
2:36 AM 32.4 °F 23.5 °F 25.7 °F 76% 30.14 in 10.0 mi WNW 11.5 mph 20.7 mph N/A   Overcast
2:55 AM 32.4 °F 22.5 °F 25.5 °F 76% 30.14 in 10.0 mi West 13.8 mph 19.6 mph N/A   Overcast
3:15 AM 32.7 °F 23.9 °F 26.2 °F 77% 30.15 in 10.0 mi WNW 11.5 mph 19.6 mph N/A   Overcast
3:35 AM 32.9 °F 23.7 °F 26.1 °F 76% 30.15 in 10.0 mi WNW 12.7 mph - N/A   Overcast
3:36 AM 32.9 °F 23.2 °F 26.1 °F 76% 30.15 in 10.0 mi WNW 13.8 mph - N/A   Overcast
4:15 AM 33.1 °F 23.9 °F 25.7 °F 74% 30.15 in 10.0 mi NW 12.7 mph 20.7 mph N/A   Overcast
4:35 AM 32.9 °F 24.1 °F 25.0 °F 73% 30.15 in 10.0 mi WNW 11.5 mph 17.3 mph N/A   Overcast
4:55 AM 32.2 °F 22.7 °F 24.8 °F 74% 30.15 in 10.0 mi WNW 12.7 mph - N/A   Mostly Cloudy
5:15 AM 32.9 °F 25.9 °F 25.3 °F 74% 30.16 in 10.0 mi WNW 8.1 mph - N/A   Overcast
5:35 AM 32.9 °F 24.7 °F 25.2 °F 73% 30.17 in 10.0 mi WNW 10.4 mph - N/A   Overcast
5:55 AM 32.9 °F 23.7 °F 25.2 °F 73% 30.17 in 10.0 mi WNW 12.7 mph 17.3 mph N/A   Overcast
5:56 AM 32.9 °F 24.1 °F 25.0 °F 73% 30.17 in 10.0 mi WNW 11.5 mph 17.3 mph N/A   Overcast
6:15 AM 33.1 °F 26.9 °F 25.2 °F 73% 30.18 in 10.0 mi West 6.9 mph - N/A   Overcast
6:35 AM 33.1 °F 26.9 °F 25.3 °F 73% 30.18 in 10.0 mi WNW 6.9 mph - N/A   Overcast
6:55 AM 33.1 °F 24.4 °F 25.2 °F 73% 30.19 in 10.0 mi WNW 11.5 mph 17.3 mph N/A   Overcast
7:15 AM 32.9 °F 24.7 °F 25.0 °F 73% 30.19 in 10.0 mi WNW 10.4 mph - N/A   Overcast
7:16 AM 33.1 °F 24.4 °F 25.0 °F 72% 30.19 in 10.0 mi WNW 11.5 mph - N/A   Overcast
7:35 AM 33.1 °F 25.5 °F 24.8 °F 72% 30.19 in 10.0 mi NW 9.2 mph - N/A   Mostly Cloudy
7:55 AM 33.3 °F 25.7 °F 24.8 °F 71% 30.20 in 10.0 mi NW 9.2 mph 16.1 mph N/A   Mostly Cloudy
8:15 AM 33.4 °F 27.3 °F 25.2 °F 72% 30.20 in 10.0 mi NW 6.9 mph - N/A   Mostly Cloudy
8:16 AM 33.3 °F 25.7 °F 25.0 °F 72% 30.20 in 10.0 mi NW 9.2 mph - N/A   Mostly Cloudy
8:35 AM 33.8 °F 26.4 °F 25.3 °F 71% 30.21 in 10.0 mi WNW 9.2 mph - N/A   Mostly Cloudy
8:55 AM 34.0 °F 26.6 °F 25.5 °F 71% 30.22 in 10.0 mi WNW 9.2 mph 18.4 mph N/A   Overcast
9:15 AM 34.3 °F 27.7 °F 25.5 °F 70% 30.23 in 10.0 mi NW 8.1 mph - N/A   Overcast
9:35 AM 34.5 °F 27.9 °F 26.1 °F 71% 30.23 in 10.0 mi WNW 8.1 mph - N/A   Overcast
9:36 AM 34.5 °F 27.9 °F 26.1 °F 71% 30.23 in 10.0 mi WNW 8.1 mph - N/A   Overcast
9:55 AM 34.7 °F 26.9 °F 25.9 °F 70% 30.23 in 10.0 mi WNW 10.4 mph - N/A   Overcast
9:56 AM 34.7 °F 26.9 °F 26.1 °F 71% 30.23 in 10.0 mi WNW 10.4 mph - N/A   Overcast
10:15 AM 34.9 °F 26.6 °F 25.3 °F 68% 30.24 in 10.0 mi NW 11.5 mph - N/A   Mostly Cloudy
10:35 AM 35.2 °F 26.2 °F 25.5 °F 68% 30.25 in 10.0 mi NW 13.8 mph - N/A   Overcast
10:36 AM 35.2 °F 25.8 °F 25.3 °F 67% 30.25 in 10.0 mi WNW 15.0 mph - N/A   Overcast
10:55 AM 35.2 °F 26.2 °F 25.5 °F 68% 30.26 in 10.0 mi NW 13.8 mph - N/A   Mostly Cloudy
11:15 AM 36.0 °F 28.0 °F 25.7 °F 66% 30.26 in 10.0 mi West 11.5 mph - N/A   Mostly Cloudy
11:35 AM 36.3 °F 29.5 °F 25.9 °F 66% 30.27 in 10.0 mi NW 9.2 mph - N/A   Mostly Cloudy
11:55 AM 35.6 °F 29.9 °F 26.1 °F 68% 30.27 in 10.0 mi WNW 6.9 mph - N/A   Mostly Cloudy
12:15 PM 36.0 °F 29.6 °F 24.4 °F 63% 30.27 in 10.0 mi NW 8.1 mph - N/A   Mostly Cloudy
12:16 PM 36.1 °F 29.9 °F 24.6 °F 63% 30.27 in 10.0 mi NW 8.1 mph - N/A   Mostly Cloudy
12:35 PM 36.0 °F 29.0 °F 24.3 °F 63% 30.28 in 10.0 mi NW 9.2 mph - N/A   Mostly Cloudy
12:36 PM 36.0 °F 28.5 °F 24.4 °F 63% 30.28 in 10.0 mi NNW 10.4 mph - N/A   Mostly Cloudy
1:15 PM 35.6 °F 28.6 °F 23.9 °F 62% 30.29 in 10.0 mi NNW 9.2 mph 16.1 mph N/A   Mostly Cloudy
1:16 PM 35.6 °F 28.6 °F 23.9 °F 62% 30.29 in 10.0 mi NW 9.2 mph 16.1 mph N/A   Mostly Cloudy
1:36 PM 35.6 °F 27.5 °F 24.1 °F 63% 30.30 in 10.0 mi NW 11.5 mph 16.1 mph N/A   Mostly Cloudy
1:55 PM 35.8 °F 28.8 °F 23.2 °F 60% 30.31 in 10.0 mi NW 9.2 mph 16.1 mph N/A   Mostly Cloudy
2:15 PM 35.8 °F 28.3 °F 23.7 °F 62% 30.31 in 10.0 mi NW 10.4 mph 19.6 mph N/A   Mostly Cloudy
2:16 PM 35.6 °F 29.2 °F 23.7 °F 62% 30.32 in 10.0 mi NNW 8.1 mph 19.6 mph N/A   Mostly Cloudy
2:35 PM 36.5 °F 28.7 °F 23.7 °F 60% 30.32 in 10.0 mi NW 11.5 mph 16.1 mph N/A   Mostly Cloudy
2:36 PM 36.3 °F 28.4 °F 23.7 °F 60% 30.32 in 10.0 mi NW 11.5 mph 16.1 mph N/A   Mostly Cloudy
2:55 PM 34.7 °F 29.6 °F 22.5 °F 61% 30.33 in 10.0 mi North 5.8 mph - N/A   Mostly Cloudy
2:56 PM 34.7 °F 29.6 °F 22.5 °F 61% 30.33 in 10.0 mi North 5.8 mph - N/A   Mostly Cloudy
3:15 PM 35.6 °F 28.0 °F 23.5 °F 62% 30.33 in 10.0 mi NNW 10.4 mph - N/A   Mostly Cloudy
3:35 PM 34.3 °F 30.2 °F 22.6 °F 62% 30.34 in 10.0 mi North 4.6 mph - N/A   Mostly Cloudy
3:55 PM 33.8 °F 28.6 °F 22.1 °F 62% 30.35 in 10.0 mi North 5.8 mph - N/A   Mostly Cloudy
4:15 PM 34.0 °F 28.0 °F 21.9 °F 61% 30.36 in 10.0 mi North 6.9 mph - N/A   Mostly Cloudy
4:35 PM 33.3 °F 27.1 °F 21.2 °F 61% 30.37 in 10.0 mi NNE 6.9 mph - N/A   Mostly Cloudy
4:36 PM 33.3 °F 26.4 °F 21.0 °F 61% 30.37 in 10.0 mi NNE 8.1 mph - N/A   Mostly Cloudy
4:55 PM 32.9 °F 27.5 °F 19.8 °F 59% 30.38 in 10.0 mi North 5.8 mph - N/A   Scattered Clouds
5:15 PM 32.2 °F 27.7 °F 19.0 °F 58% 30.38 in 10.0 mi NNE 4.6 mph - N/A   Clear
5:35 PM 32.2 °F 27.7 °F 19.0 °F 58% 30.39 in 10.0 mi North 4.6 mph - N/A   Clear
5:55 PM 32.9 °F 28.5 °F 21.4 °F 63% 30.39 in 10.0 mi NNW 4.6 mph - N/A   Mostly Cloudy
6:15 PM 32.7 °F 26.4 °F 24.8 °F 73% 30.40 in 10.0 mi NNE 6.9 mph - N/A   Overcast
6:35 PM 32.0 °F 24.8 °F 24.4 °F 74% 30.41 in 10.0 mi NNE 8.1 mph - N/A   Overcast
6:36 PM 32.0 °F 24.8 °F 24.4 °F 74% 30.41 in 10.0 mi NNE 8.1 mph - N/A   Overcast
6:55 PM 31.8 °F 26.2 °F 23.9 °F 73% 30.42 in 10.0 mi ENE 5.8 mph - N/A   Overcast
6:56 PM 31.8 °F 23.9 °F 23.9 °F 73% 30.42 in 10.0 mi NE 9.2 mph - N/A   Overcast
7:15 PM 31.3 °F 25.6 °F 23.4 °F 72% 30.43 in 10.0 mi NE 5.8 mph - N/A   Mostly Cloudy
7:35 PM 30.7 °F 22.6 °F 21.9 °F 70% 30.44 in 10.0 mi NE 9.2 mph - N/A   Mostly Cloudy
7:55 PM 30.2 °F 24.3 °F 21.4 °F 70% 30.44 in 10.0 mi NE 5.8 mph - N/A   Scattered Clouds
8:16 PM 30.0 °F 23.2 °F 21.0 °F 69% 30.45 in 10.0 mi NNE 6.9 mph - N/A   Scattered Clouds
8:35 PM 29.8 °F 24.9 °F 20.1 °F 67% 30.45 in 10.0 mi NE 4.6 mph - N/A   Scattered Clouds
8:36 PM 29.8 °F 26.3 °F 20.1 °F 67% 30.45 in 10.0 mi ENE 3.5 mph - N/A   Scattered Clouds
8:55 PM 29.3 °F 24.3 °F 20.3 °F 69% 30.46 in 10.0 mi ENE 4.6 mph - N/A   Scattered Clouds
8:56 PM 29.3 °F 25.6 °F 20.3 °F 69% 30.46 in 10.0 mi East 3.5 mph - N/A   Scattered Clouds
9:15 PM 29.3 °F 24.3 °F 20.7 °F 70% 30.46 in 10.0 mi East 4.6 mph - N/A   Overcast
9:35 PM 28.6 °F 23.5 °F 20.1 °F 71% 30.47 in 10.0 mi East 4.6 mph - N/A   Mostly Cloudy
9:36 PM 28.6 °F 22.4 °F 19.9 °F 70% 30.47 in 10.0 mi East 5.8 mph - N/A   Mostly Cloudy
10:15 PM 27.5 °F 23.6 °F 18.9 °F 70% 30.47 in 10.0 mi East 3.5 mph - N/A   Clear
10:16 PM 27.5 °F 23.6 °F 18.9 °F 70% 30.47 in 10.0 mi East 3.5 mph - N/A   Clear
10:35 PM 27.5 °F 23.6 °F 18.5 °F 69% 30.47 in 10.0 mi East 3.5 mph - N/A   Scattered Clouds
10:55 PM 27.1 °F 23.2 °F 18.1 °F 69% 30.47 in 10.0 mi East 3.5 mph - N/A   Clear
10:56 PM 27.0 °F 23.0 °F 18.3 °F 70% 30.47 in 10.0 mi East 3.5 mph - N/A   Clear
11:15 PM 26.6 °F 21.2 °F 18.5 °F 71% 30.48 in 10.0 mi East 4.6 mph - N/A   Clear
11:16 PM 26.6 °F 21.2 °F 18.5 °F 71% 30.48 in 10.0 mi East 4.6 mph - N/A   Clear
11:35 PM 26.2 °F 20.7 °F 18.3 °F 72% 30.48 in 10.0 mi East 4.6 mph - N/A   Clear
11:55 PM 25.7 °F 20.1 °F 18.1 °F 73% 30.48 in 10.0 mi ENE 4.6 mph - N/A   Clear